Regional Weather Roundup
Issued by NWS

Home | Current Version | Previous Version | Text Only | Print | Product List | Glossary On
Versions: 1 2 3 4 5 6 7 8 9 10 11 12 13 14 15 16 17 18 19 20 21 22 23 24 25 26 27 28 29 30 31 32 33 34 35 36 37 38 39 40 41 42 43 44 45 46 47 48 49 50
735
ASUS42 KFFC 301303
RWRGA
WEATHER ROUNDUP FOR GEORGIA
NATIONAL WEATHER SERVICE PEACHTREE CITY GA
900 AM EDT SAT APR 30 2016

NOTE: "FAIR" INDICATES FEW OR NO CLOUDS BELOW 12,000 FEET WITH NO
SIGNIFICANT WEATHER AND/OR OBSTRUCTIONS TO VISIBILITY.

* = USE WITH CAUTION. THE STATIONS MARKED WITH AN ASTERISK MAY NOT
REPORT WEATHER SUCH AS PRECIPITATION, FOG, OR THUNDER AND ARE NOT
QUALITY CONTROLLED BY NWS.

THE REMARK "TC" DENOTES TEMPERATURE READING IN DEGREES CELSIUS.

GAZ001>058-301400-
NORTH GEORGIA

CITY           SKY/WX    TMP DP  RH WIND       PRES   REMARKS
ATLANTA        PTSUNNY   73  56  54 E5        29.98R
ATHENS         CLOUDY    69  60  73 CALM      30.00R
CHAMBLEE       CLOUDY    70  56  61 VRB3      29.99R
PEACHTREE CITY PTSUNNY   69  61  75 CALM      29.99R
ROME           PTSUNNY   67  60  78 CALM      29.97R
WEST ATLANTA   PTSUNNY   67  59  75 NE3       29.98R
GAINESVILLE    CLOUDY    68  53  58 E10       30.03R
CARTERSVILLE   PTSUNNY   70  59  68 E6        29.98R


CITY           SKY/WX    TMP DP  RH WIND       PRES   REMARKS
DALTON*        CLOUDY    64  61  88 CALM      29.97S
LAWRENCEVILLE* SUNNY     66  55  68 NE7       30.01R
MARIETTA       PTSUNNY   69  59  69 VRB3      29.99R
KENNESAW*      PTSUNNY   68  55  64 CALM      29.97R
CANTON*        PTSUNNY   68  46  45 E3        30.03R
BLAIRSVILLE*     N/A    N/A N/A N/A MISG      30.03R
$$

GAZ059>098-102>109-301400-
CENTRAL GEORGIA

CITY           SKY/WX    TMP DP  RH WIND       PRES   REMARKS
AUGUSTA-BUSH   CLOUDY    67  67 100 S6        29.98R FOG
AUGUSTA-DANIEL CLOUDY    68  65  90 SE7       30.00R FOG
COLUMBUS       MOSUNNY   70  61  73 E3        29.95R
MACON          MOSUNNY   70  63  78 CALM      29.96R
ROBINS AFB     MOSUNNY   70  65  84 SE5       29.96R


CITY           SKY/WX    TMP DP  RH WIND       PRES   REMARKS
LAGRANGE*      MOSUNNY   71  66  84 CALM      29.97R
SYLVANIA*      FOG       71  71 100 SE5       30.01S VSB 3/4
MILLEDGEVILLE* MOSUNNY   70  64  83 CALM      29.97R
$$

GAZ099>101-110>166-301400-
SOUTH GEORGIA

CITY           SKY/WX    TMP DP  RH WIND       PRES   REMARKS
SAVANNAH       PTSUNNY   76  69  79 SE9       30.01R
VALDOSTA       SUNNY     75  71  87 S6        29.97R
ALMA           SUNNY     74  70  87 SE7       29.97S
ST SIMONS      MOSUNNY   74  73  97 SE8       30.00R
FT STEWART     PTSUNNY   71  71  99 E8        29.98R FOG
ALBANY         PTSUNNY   75  69  81 SE3       29.95R
HUNTER AFB     SUNNY     76  73  91 SE8       29.98S
MOODY AFB      SUNNY     76  68  75 SE7       29.95S
BRUNSWICK      MOSUNNY   68  66  94 SE6       30.01R


CITY           SKY/WX    TMP DP  RH WIND       PRES   REMARKS
BAINBRIDGE*    MOSUNNY   73  70  88 SE9       29.93S
MOULTRIE*      PTSUNNY   75  70  83 SE6       29.97R
VIDALIA*       SUNNY     73  68  83 SE5       29.98R
WAYCROSS*      SUNNY     76  71  84 SE5       29.98S
DOUGLAS*       SUNNY     77  70  78 S5        29.98S
$$




USA.gov is the U.S. government's official web portal to all federal, state and local government web resources and services.